Vertical_Velocity
0 1 -0 1 0 0 1 0 -2 -1 -1 0 -0 -2 -1 0 -1 -2 -1 -0 -1 -1 -1 -1 -1 -1 -1 1 0 0 -0 -0 -0 -1 -0 -0 -0 -0 -0 -1 1 -1 1 0 -1 -2 -1
1 1 1 -0 -0 -0 1 -0 -1 -0 -1 -0 -1 1 -1 -2 -1 -1 -1 -1 -2 -0 -1 -1 -2 -2 -1 0 0 0 -0 -0 0 -1 -1 -1 0 0 -1 -0 -1 -0 -0 1 -0 -1 -1
2 0 0 1 -1 1 -0 -0 -1 1 -1 1 0 -0 1 -1 -1 -1 -1 -2 -2 -2 -1 -1 -1 -2 -2 -1 0 0 -0 0 0 0 -1 -1 -1 1 1 -0 -1 -1 -1 -1 -1 -1 -3
1 2 1 0 2 1 0 0 -0 -0 -1 0 0 -1 -1 0 1 0 -0 -1 -2 -2 -2 -1 -1 -1 -1 -1 -1 -0 -0 0 1 1 0 -1 -1 -1 -0 0 -1 -2 -2 -1 -1 -2 -3
1 2 2 1 0 1 1 -0 -0 -0 -0 -1 -1 0 -1 -0 1 -0 -0 -1 -1 -1 -2 -1 -1 -0 -0 -1 -1 -1 -1 -1 0 0 -0 -0 -0 0 0 -0 -1 -1 10 -1 -5 -1 -2
1 2 2 0 1 0 0 1 0 -0 -0 -1 -1 -0 -2 -1 -1 -1 -1 -0 -1 -2 -2 -2 -1 -0 -1 -1 -1 -1 -0 -0 -0 -1 -1 -1 -0 0 1 2 9 9 3 -1 3 -2 -1
1 2 1 2 2 1 -0 1 1 0 1 -0 0 -0 0 -0 -2 -2 -1 -0 -1 -2 -2 -0 -1 -0 -1 -1 -1 -1 -1 -1 -1 -1 -1 0 -1 7 -6 -1 0 -1 -1 -1 -3 -1 -3
0 1 2 1 3 2 1 1 1 1 1 -1 -0 -0 2 1 -1 -1 -1 -1 -1 -1 -2 -1 -1 -0 -1 -2 -2 -2 -1 -0 -1 -2 -2 -1 2 1 1 0 -1 -1 -1 2 -1 -1 -2
0 1 0 1 2 3 1 1 1 1 0 0 -1 -1 -1 -0 -1 -1 -1 -2 -1 -1 1 -1 -1 -0 -1 -1 -1 -1 -1 -0 -2 -2 -1 -3 -2 -1 -0 1 1 0 -1 -2 -0 -3 -3
1 1 0 1 1 2 2 1 2 1 1 0 0 -1 -2 -1 -0 0 -1 -2 -1 -1 0 -2 -2 -2 -2 -1 -1 -0 -0 -1 0 0 0 -1 -1 -1 -1 -1 -1 1 -1 -2 -2 -2 5
0 3 -0 3 0 3 3 2 1 1 1 0 -0 2 -0 0 -0 -0 -0 -0 -2 -1 3 0 -0 -1 -1 -0 -1 -2 -1 -1 -0 0 1 -0 0 -0 -2 -1 -1 -0 -1 -1 -1 0 -2
2 2 1 -0 1 2 1 1 3 1 1 0 -0 0 1 -0 -1 1 1 -0 -0 -2 0 -1 1 -1 -1 0 0 -0 -1 -1 -1 -1 -1 -1 -0 1 2 2 1 0 -1 -1 -1 0 1
18 8 11 2 -5 0 2 2 1 3 0 2 1 1 2 -0 0 2 -1 1 -1 -1 -2 -3 -2 2 0 -2 -0 0 0 -2 -1 -1 -1 -1 -1 -0 1 0 -0 -0 -3 3 5 2 4
2 13 9 7 4 1 2 0 2 2 1 0 0 1 0 1 0 3 -0 1 6 -1 -2 -1 -4 -3 -1 1 -2 -1 -1 -1 -1 -0 1 1 2 -1 -2 -2 -2 -2 -2 1 0 2 3
11 24 7 11 -2 1 2 -3 -0 2 1 1 0 0 0 0 -1 1 7 -2 -2 -3 -3 -2 0 1 -2 -1 0 0 -1 -0 1 2 1 1 -1 1 2 1 1 0 -0 -1 -1 -2 2
10 -2 11 13 8 10 12 8 -1 3 6 -0 1 3 3 -1 2 6 7 -4 0 0 1 -0 -1 -2 0 -2 -0 0 -1 -1 -1 -0 -2 -2 -1 -1 -2 -1 -3 -2 0 -4 -0 1 -1
-6 -10 6 3 11 12 4 6 3 4 0 2 1 3 -2 2 4 8 -1 3 -4 -0 -1 2 1 -1 1 -2 -1 1 1 -0 0 -1 -1 -2 -3 -4 -1 1 -1 0 -0 -1 -2 -1 2
4 4 9 1 -3 5 7 3 4 6 3 6 1 2 -1 1 4 -2 -3 -3 -3 0 -1 -2 0 -1 -1 -2 -2 0 -0 -2 -1 -0 -0 -0 -1 -1 -3 1 -1 1 -1 0 -0 2 -1
-17 5 6 12 8 -1 11 5 -1 9 2 10 -1 4 2 3 2 -3 1 0 1 1 -1 -0 2 1 1 0 -3 -0 -0 -1 -1 -2 1 -1 -1 -2 -1 -1 -1 -3 -2 -3 1 2 -10
-8 2 2 6 8 7 2 1 5 17 0 13 8 7 1 -1 -3 6 -0 -3 4 1 0 0 -1 1 3 -1 1 -1 1 -1 -0 -4 0 2 -3 -3 -5 -2 0 -3 -1 2 4 -1 -7
-1 -1 -5 -3 -3 5 -4 -2 16 -7 4 37 7 -10 -5 -6 -13 -2 9 4 -1 -1 1 1 -2 -1 0 -0 3 -5 -3 1 -0 0 -0 -0 -2 -0 -2 1 2 -2 -3 -1 -7 0 1
-1 3 -4 5 5 1 -4 -3 2 2 16 9 4 -1 -4 -3 1 8 3 -3 1 -1 2 -1 -1 3 2 1 3 -2 0 0 3 0 1 -2 -4 -0 -12 0 2 -6 -5 -2 4 9 -14
1 0 -3 -1 -1 3 1 -3 1 6 4 39 -4 -1 11 -2 2 9 -11 -1 -1 3 5 1 1 1 1 1 -0 -2 -1 2 -1 1 0 -1 1 1 -2 2 1 -9 -3 -2 0 1 2
-4 -1 -1 2 3 4 2 -3 -1 6 13 4 2 14 13 -8 0 -1 7 1 -2 2 3 0 1 0 -2 2 -0 2 0 0 -0 -3 0 -0 4 -1 -1 -1 2 -2 -2 -1 -6 -1 -1
-1 5 1 -6 -2 0 8 6 0 -2 4 13 13 10 -1 1 2 8 2 -0 5 2 -3 -1 -1 1 -3 -1 1 -0 -3 0 -3 1 0 4 4 -0 -2 1 -16 -7 -1 -1 0 -2 0
-2 5 -3 2 -0 1 1 1 2 4 -2 20 17 14 -1 7 -1 -4 -5 0 -2 -1 -1 -3 -1 0 0 -2 2 -1 -0 0 -1 0 -2 1 2 1 0 0 -1 2 -0 -0 -1 -25 -0
-1 2 -4 -9 2 4 1 -3 2 4 -4 0 6 9 3 3 -3 -1 -1 11 -3 -1 0 -1 0 -1 3 -2 0 -3 -3 -2 -2 -1 -1 1 1 -5 3 -2 -10 -9 0 -0 2 -16 0
0 4 1 21 -5 6 0 -1 4 6 3 2 4 1 6 1 -4 3 1 -6 2 1 1 -1 5 -1 -0 -3 -0 -4 1 -2 -1 -2 -2 0 -0 -5 3 4 -16 1 -1 -2 5 -3 0
-2 0 -3 8 4 6 -1 1 -3 -4 -3 -2 -10 -3 -8 -1 -2 -2 -7 -7 -3 2 6 -0 -2 -1 1 -0 -1 -1 -2 -0 1 -5 2 -8 -10 -3 -8 -4 -3 -5 1 -1 0 2 2
Height
3141 3142 3142 3143 3144 3144 3145 3146 3147 3147 3148 3148 3148 3147 3147 3146 3146 3145 3143 3142 3141 3140 3139 3138 3137 3136 3135 3135 3134 3133 3133 3133 3133 3133 3134 3134 3135 3136 3137 3138 3139 3139 3139 3139 3140 3141 3142
3138 3139 3141 3142 3142 3143 3144 3145 3145 3146 3147 3147 3147 3147 3146 3146 3146 3145 3143 3142 3142 3140 3139 3138 3137 3136 3135 3134 3133 3132 3132 3132 3132 3132 3133 3133 3134 3135 3135 3136 3137 3137 3138 3138 3139 3139 3139
3136 3136 3138 3139 3140 3141 3142 3143 3144 3144 3145 3146 3146 3146 3145 3145 3145 3145 3143 3142 3141 3140 3139 3138 3136 3135 3134 3134 3131 3130 3130 3130 3130 3131 3131 3132 3133 3134 3134 3135 3135 3135 3136 3136 3137 3137 3138
3131 3133 3134 3136 3138 3139 3140 3141 3142 3142 3143 3144 3144 3145 3144 3144 3144 3144 3143 3142 3140 3139 3138 3136 3135 3134 3132 3131 3130 3130 3130 3130 3129 3129 3130 3130 3131 3132 3133 3134 3134 3135 3135 3135 3134 3135 3135
3127 3129 3131 3132 3134 3136 3137 3138 3139 3140 3141 3141 3143 3143 3143 3144 3144 3143 3142 3141 3139 3138 3137 3135 3134 3132 3131 3131 3130 3129 3129 3129 3129 3129 3129 3129 3131 3132 3133 3133 3134 3133 3135 3135 3133 3133 3133
3121 3124 3127 3129 3130 3132 3134 3135 3136 3137 3139 3139 3140 3141 3142 3142 3142 3142 3141 3139 3138 3137 3136 3134 3132 3134 3131 3130 3128 3128 3128 3128 3128 3127 3128 3129 3130 3131 3132 3133 3135 3134 3134 3133 3133 3132 3131
3115 3118 3121 3125 3127 3128 3130 3132 3133 3135 3136 3137 3138 3139 3140 3141 3141 3141 3140 3139 3140 3138 3135 3134 3132 3130 3128 3128 3127 3126 3126 3126 3126 3127 3128 3129 3131 3133 3129 3131 3131 3132 3132 3132 3130 3130 3128
3109 3112 3115 3119 3122 3124 3125 3127 3130 3131 3132 3134 3135 3136 3138 3139 3139 3139 3138 3137 3136 3136 3133 3130 3129 3128 3127 3126 3126 3125 3126 3127 3125 3126 3127 3130 3130 3129 3129 3129 3129 3130 3130 3131 3129 3127 3126
3102 3105 3108 3112 3116 3120 3122 3123 3125 3128 3129 3130 3132 3133 3135 3136 3137 3138 3137 3136 3135 3133 3132 3128 3127 3126 3127 3127 3126 3126 3126 3125 3125 3125 3126 3127 3128 3128 3128 3128 3128 3127 3128 3128 3129 3127 3125
3093 3097 3101 3105 3109 3113 3117 3119 3120 3123 3125 3127 3129 3130 3132 3133 3136 3135 3135 3134 3134 3132 3129 3127 3125 3126 3126 3126 3126 3125 3125 3127 3125 3125 3125 3125 3126 3126 3126 3126 3127 3127 3126 3126 3126 3126 3127
3084 3088 3093 3097 3102 3106 3110 3113 3115 3117 3120 3123 3125 3127 3128 3129 3131 3132 3133 3132 3132 3132 3130 3127 3124 3124 3124 3126 3126 3125 3125 3124 3124 3125 3127 3125 3125 3125 3124 3125 3125 3126 3124 3124 3123 3123 3122
3076 3080 3084 3088 3095 3098 3103 3107 3110 3112 3115 3118 3120 3123 3125 3126 3127 3129 3129 3130 3131 3134 3127 3123 3122 3122 3124 3124 3124 3124 3124 3124 3124 3124 3124 3124 3124 3124 3123 3123 3123 3123 3122 3121 3119 3120 3121
3068 3073 3077 3081 3086 3091 3095 3099 3103 3107 3109 3112 3115 3117 3120 3122 3125 3125 3126 3129 3132 3128 3124 3122 3121 3121 3122 3123 3123 3122 3123 3123 3124 3124 3123 3123 3122 3122 3122 3122 3122 3122 3122 3121 3119 3119 3113
3059 3065 3070 3073 3077 3082 3088 3092 3096 3101 3104 3107 3109 3112 3115 3118 3120 3122 3123 3127 3126 3119 3118 3118 3119 3120 3121 3121 3121 3121 3122 3122 3121 3122 3121 3121 3121 3120 3121 3121 3122 3121 3123 3124 3121 3113 3113
3052 3057 3061 3066 3070 3074 3078 3084 3089 3094 3097 3100 3103 3106 3110 3112 3114 3117 3119 3119 3117 3115 3115 3115 3117 3117 3118 3118 3120 3119 3119 3120 3119 3119 3121 3120 3120 3118 3118 3119 3121 3120 3122 3125 3123 3119 3117
3044 3048 3052 3057 3063 3068 3072 3076 3080 3085 3089 3093 3096 3100 3103 3106 3109 3110 3111 3110 3110 3110 3111 3111 3113 3115 3115 3116 3118 3117 3116 3116 3116 3117 3117 3119 3120 3117 3117 3117 3118 3120 3121 3121 3121 3119 3110
3037 3043 3044 3048 3054 3060 3064 3069 3073 3077 3082 3087 3089 3091 3095 3098 3102 3102 3101 3103 3104 3106 3108 3110 3109 3110 3112 3113 3115 3115 3113 3113 3113 3114 3115 3116 3117 3118 3117 3116 3115 3117 3118 3119 3120 3119 3114
3033 3035 3039 3044 3047 3052 3057 3062 3066 3071 3075 3077 3081 3083 3088 3091 3095 3091 3093 3096 3100 3101 3103 3105 3105 3105 3107 3109 3111 3113 3111 3111 3111 3113 3113 3114 3113 3114 3115 3114 3114 3114 3114 3114 3116 3115 3112
3027 3029 3033 3036 3043 3046 3050 3054 3059 3064 3067 3071 3071 3075 3078 3082 3081 3084 3087 3090 3093 3096 3098 3100 3100 3100 3102 3104 3107 3106 3107 3108 3108 3111 3111 3111 3111 3112 3108 3110 3108 3109 3109 3110 3110 3110 3104
3019 3023 3027 3030 3034 3040 3043 3046 3051 3056 3059 3064 3065 3067 3068 3071 3072 3077 3082 3084 3087 3090 3092 3094 3095 3097 3098 3100 3102 3102 3104 3105 3105 3107 3109 3109 3108 3108 3107 3105 3105 3105 3106 3106 3106 3104 3093
3008 3014 3019 3023 3029 3034 3038 3040 3045 3049 3053 3056 3055 3056 3057 3059 3064 3071 3076 3077 3080 3084 3086 3089 3090 3092 3095 3097 3098 3099 3101 3102 3101 3103 3103 3105 3103 3102 3101 3100 3098 3097 3098 3098 3094 3088 3090
2999 3004 3010 3014 3019 3025 3030 3032 3039 3041 3047 3046 3046 3049 3052 3057 3061 3064 3067 3070 3075 3079 3083 3084 3086 3089 3091 3093 3095 3095 3097 3098 3098 3097 3097 3098 3097 3095 3093 3095 3089 3086 3087 3084 3081 3079 3076
2990 2994 3000 3005 3010 3017 3022 3024 3029 3033 3037 3033 3036 3042 3048 3049 3053 3057 3060 3065 3070 3076 3078 3080 3083 3086 3086 3088 3089 3091 3093 3093 3093 3093 3093 3094 3093 3092 3089 3088 3084 3077 3071 3071 3071 3070 3071
2981 2986 2992 2997 3003 3009 3014 3017 3019 3023 3027 3027 3030 3037 3039 3041 3047 3049 3054 3059 3065 3069 3074 3075 3077 3080 3084 3084 3085 3086 3086 3087 3086 3086 3087 3086 3088 3090 3087 3084 3079 3066 3065 3065 3065 3062 3062
2973 2978 2983 2990 2996 3001 3007 3011 3013 3016 3017 3022 3025 3028 3031 3035 3041 3043 3049 3055 3060 3065 3068 3071 3073 3076 3077 3080 3081 3083 3080 3079 3077 3076 3077 3080 3082 3085 3084 3077 3065 3061 3060 3060 3058 3053 3053
2966 2972 2978 2985 2989 2994 2999 3003 3007 3010 3012 3017 3020 3022 3026 3031 3036 3041 3045 3051 3056 3059 3063 3064 3068 3070 3072 3074 3076 3076 3075 3073 3072 3070 3070 3072 3076 3080 3077 3076 3063 3053 3054 3051 3050 3043 3042
2959 2967 2972 2978 2984 2989 2993 2996 2999 3004 3008 3011 3016 3019 3023 3028 3032 3037 3042 3045 3050 3054 3055 3058 3061 3064 3067 3068 3069 3071 3070 3069 3068 3066 3065 3067 3068 3068 3070 3068 3053 3048 3046 3046 3047 3042 3035
2952 2960 2967 2972 2979 2985 2988 2989 2994 2998 3002 3006 3010 3015 3020 3025 3030 3033 3038 3041 3045 3048 3050 3053 3057 3056 3060 3062 3063 3062 3061 3060 3061 3060 3060 3061 3062 3059 3061 3062 3050 3042 3042 3042 3038 3031 3028
2944 2953 2961 2967 2974 2978 2983 2988 2992 2997 2999 3002 3009 3014 3018 3022 3026 3029 3033 3037 3041 3044 3047 3047 3049 3050 3053 3053 3053 3055 3055 3054 3054 3055 3053 3054 3053 3052 3052 3043 3039 3037 3034 3030 3026 3022 3018